| time (UTC) | temp F | wind direction | speed MPH | gust MPH | rain 1hr in | rain 24hr in | rain mn in | humidity % | barometer mb |
| 20260906120720 | 69 | 10 | 0.0 | 1.0 | 0.00 | 0.00 | 0.00 | 99 | 1017.0 |
| 20260906120216 | 68 | 13 | 0.0 | 0.0 | 0.00 | 0.00 | 0.00 | 99 | 1017.0 |
| 20260906115712 | 68 | 11 | 0.0 | 1.0 | 0.00 | 0.00 | 0.00 | 99 | 1017.1 |
| 20260906115207 | 68 | 12 | 0.0 | 1.0 | 0.00 | 0.00 | 0.00 | 99 | 1016.9 |
| 20260906114706 | 68 | 14 | 0.0 | 0.0 | 0.00 | 0.00 | 0.00 | 99 | 1016.9 |
| 20260906114201 | 68 | 13 | 0.0 | 0.0 | 0.00 | 0.00 | 0.00 | 99 | 1016.9 |
| 20260906113655 | 68 | 13 | 0.0 | 0.0 | 0.00 | 0.00 | 0.00 | 99 | 1016.7 |
| 20260906113155 | 68 | 13 | 0.0 | 0.0 | 0.00 | 0.00 | 0.00 | 99 | 1016.6 |
| 20260906112654 | 68 | 13 | 0.0 | 0.0 | 0.00 | 0.00 | 0.00 | 99 | 1016.9 |
| 20260906112152 | 68 | 13 | 0.0 | 0.0 | 0.00 | 0.00 | 0.00 | 99 | 1016.7 |
| 20260906111650 | 68 | 14 | 0.0 | 0.0 | 0.00 | 0.00 | 0.00 | 99 | 1016.3 |
| 20260906111145 | 68 | 13 | 0.0 | 0.0 | 0.00 | 0.00 | 0.00 | 99 | 1016.4 |
| 20260906110640 | 68 | 11 | 0.0 | 0.0 | 0.00 | 0.00 | 0.00 | 99 | 1016.3 |
| 20260906110136 | 68 | 11 | 0.0 | 0.0 | 0.00 | 0.00 | 0.00 | 99 | 1016.2 |
| 20260906105629 | 68 | 11 | 0.0 | 0.0 | 0.00 | 0.00 | 0.00 | 99 | 1016.0 |
| 20260906105126 | 68 | 11 | 0.0 | 0.0 | 0.00 | 0.00 | 0.00 | 99 | 1016.0 |
| 20260906104625 | 68 | 11 | 0.0 | 0.0 | 0.00 | 0.00 | 0.00 | 99 | 1016.0 |
| 20260906104120 | 68 | 11 | 0.0 | 0.0 | 0.00 | 0.00 | 0.00 | 99 | 1015.8 |
| 20260906103618 | 68 | 11 | 0.0 | 0.0 | 0.00 | 0.00 | 0.00 | 99 | 1015.9 |
| 20260906103114 | 68 | 11 | 0.0 | 0.0 | 0.00 | 0.00 | 0.00 | 99 | 1015.9 |
| 20260906102613 | 68 | 11 | 0.0 | 0.0 | 0.00 | 0.00 | 0.00 | 99 | 1015.9 |
| 20260906102108 | 68 | 11 | 0.0 | 0.0 | 0.00 | 0.00 | 0.00 | 99 | 1015.7 |
| 20260906101602 | 68 | 11 | 0.0 | 0.0 | 0.00 | 0.00 | 0.00 | 99 | 1015.9 |
| 20260906101057 | 68 | 11 | 0.0 | 0.0 | 0.00 | 0.00 | 0.00 | 99 | 1015.7 |
| 20260906100553 | 68 | 12 | 0.0 | 0.0 | 0.00 | 0.00 | 0.00 | 99 | 1015.8 |
| 20260906100047 | 68 | 12 | 0.0 | 0.0 | 0.00 | 0.00 | 0.00 | 99 | 1015.8 |
| 20260906095547 | 67 | 12 | 0.0 | 0.0 | 0.00 | 0.00 | 0.00 | 99 | 1016.1 |
| 20260906095043 | 67 | 12 | 0.0 | 0.0 | 0.00 | 0.00 | 0.00 | 99 | 1015.7 |
| 20260906094541 | 67 | 12 | 0.0 | 0.0 | 0.00 | 0.00 | 0.00 | 99 | 1015.7 |
| 20260906094038 | 67 | 12 | 0.0 | 0.0 | 0.00 | 0.00 | 0.00 | 99 | 1015.6 |
| 20260906093533 | 67 | 12 | 0.0 | 0.0 | 0.00 | 0.00 | 0.00 | 99 | 1015.6 |
| 20260906093034 | 67 | 12 | 0.0 | 0.0 | 0.00 | 0.00 | 0.00 | 99 | 1015.6 |
| 20260906092528 | 67 | 12 | 0.0 | 0.0 | 0.00 | 0.00 | 0.00 | 99 | 1015.6 |
| 20260906092024 | 67 | 12 | 0.0 | 0.0 | 0.00 | 0.00 | 0.00 | 99 | 1015.7 |
| 20260906091520 | 67 | 13 | 0.0 | 0.0 | 0.00 | 0.00 | 0.00 | 99 | 1015.8 |
| 20260906091016 | 67 | 13 | 0.0 | 0.0 | 0.00 | 0.00 | 0.00 | 99 | 1015.7 |
| 20260906090511 | 67 | 16 | 0.0 | 2.0 | 0.00 | 0.00 | 0.00 | 99 | 1015.8 |
| 20260906090010 | 66 | 16 | 0.0 | 1.0 | 0.00 | 0.00 | 0.00 | 99 | 1015.7 |
| 20260906085509 | 66 | 15 | 1.0 | 1.0 | 0.00 | 0.00 | 0.00 | 99 | 1015.6 |
| 20260906085010 | 66 | 4 | 1.0 | 2.0 | 0.00 | 0.00 | 0.00 | 99 | 1015.6 |
| 20260906084509 | 66 | 8 | 1.0 | 1.0 | 0.00 | 0.00 | 0.00 | 99 | 1015.7 |
| 20260906084008 | 66 | 12 | 1.0 | 1.0 | 0.00 | 0.00 | 0.00 | 99 | 1015.7 |
| 20260906083504 | 66 | 12 | 1.0 | 1.0 | 0.00 | 0.00 | 0.00 | 99 | 1015.6 |
| 20260906083003 | 66 | 14 | 0.0 | 0.0 | 0.00 | 0.00 | 0.00 | 99 | 1015.8 |
| 20260906082459 | 66 | 13 | 0.0 | 0.0 | 0.00 | 0.00 | 0.00 | 99 | 1015.8 |
| 20260906081954 | 66 | 19 | 0.0 | 0.0 | 0.00 | 0.00 | 0.00 | 99 | 1015.7 |
| 20260906081449 | 66 | 14 | 0.0 | 0.0 | 0.00 | 0.00 | 0.00 | 99 | 1015.9 |
| 20260906080945 | 66 | 15 | 0.0 | 0.0 | 0.00 | 0.00 | 0.00 | 99 | 1015.8 |
| 20260906080442 | 66 | 15 | 0.0 | 0.0 | 0.00 | 0.00 | 0.00 | 99 | 1015.9 |
| 20260906075937 | 66 | 15 | 0.0 | 0.0 | 0.00 | 0.00 | 0.00 | 99 | 1015.6 |
| 20260906075432 | 66 | 15 | 0.0 | 0.0 | 0.00 | 0.00 | 0.00 | 99 | 1015.7 |
| 20260906074927 | 66 | 15 | 0.0 | 0.0 | 0.00 | 0.00 | 0.00 | 99 | 1015.6 |
| 20260906074426 | 66 | 15 | 0.0 | 0.0 | 0.00 | 0.00 | 0.00 | 99 | 1015.7 |
| 20260906073925 | 67 | 14 | 0.0 | 0.0 | 0.00 | 0.00 | 0.00 | 99 | 1015.6 |
| 20260906073420 | 67 | 15 | 0.0 | 0.0 | 0.00 | 0.00 | 0.00 | 99 | 1015.6 |
| 20260906072917 | 67 | 14 | 0.0 | 1.0 | 0.00 | 0.00 | 0.00 | 99 | 1015.5 |
| 20260906072412 | 67 | 14 | 0.0 | 0.0 | 0.00 | 0.00 | 0.00 | 99 | 1015.4 |
| 20260906071908 | 67 | 14 | 0.0 | 1.0 | 0.00 | 0.00 | 0.00 | 99 | 1015.4 |
| 20260906071403 | 67 | 13 | 0.0 | 0.0 | 0.00 | 0.00 | 0.00 | 99 | 1015.5 |
| 20260906070859 | 67 | 14 | 0.0 | 1.0 | 0.00 | 0.00 | 0.00 | 99 | 1015.5 |
| 20260906070355 | 67 | 18 | 0.0 | 1.0 | 0.00 | 0.00 | 0.00 | 99 | 1015.4 |
| 20260906065850 | 67 | 352 | 2.0 | 2.0 | 0.00 | 0.00 | 0.00 | 99 | 1015.4 |
| 20260906065344 | 67 | 13 | 0.0 | 1.0 | 0.00 | 0.00 | 0.00 | 99 | 1015.3 |
| 20260906064840 | 67 | 7 | 1.0 | 1.0 | 0.00 | 0.00 | 0.00 | 99 | 1015.5 |
| 20260906064336 | 67 | 15 | 0.0 | 1.0 | 0.00 | 0.00 | 0.00 | 99 | 1015.5 |
| 20260906063830 | 68 | 15 | 0.0 | 0.0 | 0.00 | 0.00 | 0.00 | 99 | 1015.7 |
| 20260906063326 | 68 | 16 | 0.0 | 0.0 | 0.00 | 0.00 | 0.00 | 99 | 1015.7 |
| 20260906062821 | 68 | 13 | 0.0 | 0.0 | 0.00 | 0.00 | 0.00 | 99 | 1015.8 |
| 20260906062320 | 68 | 13 | 0.0 | 0.0 | 0.00 | 0.00 | 0.00 | 99 | 1015.8 |
| 20260906061816 | 68 | 13 | 0.0 | 0.0 | 0.00 | 0.00 | 0.00 | 99 | 1015.5 |
| 20260906061313 | 68 | 15 | 0.0 | 0.0 | 0.00 | 0.00 | 0.00 | 99 | 1015.9 |
| 20260906060812 | 68 | 15 | 0.0 | 0.0 | 0.00 | 0.00 | 0.00 | 99 | 1015.9 |
| 20260906060311 | 68 | 15 | 0.0 | 0.0 | 0.00 | 0.00 | 0.00 | 99 | 1015.8 |
| 20260906055806 | 68 | 15 | 0.0 | 0.0 | 0.00 | 0.00 | 0.00 | 99 | 1015.6 |
| 20260906055301 | 68 | 16 | 0.0 | 0.0 | 0.00 | 0.00 | 0.00 | 99 | 1015.9 |
| 20260906054756 | 68 | 19 | 0.0 | 0.0 | 0.00 | 0.00 | 0.00 | 99 | 1015.8 |
| 20260906054252 | 68 | 20 | 0.0 | 0.0 | 0.00 | 0.00 | 0.00 | 99 | 1015.6 |
| 20260906053748 | 69 | 18 | 0.0 | 0.0 | 0.00 | 0.00 | 0.00 | 99 | 1015.7 |
| 20260906053244 | 69 | 18 | 0.0 | 0.0 | 0.00 | 0.00 | 0.00 | 99 | 1015.6 |
| 20260906052738 | 69 | 14 | 0.0 | 0.0 | 0.00 | 0.00 | 0.00 | 99 | 1015.7 |
| 20260906052235 | 69 | 12 | 0.0 | 0.0 | 0.00 | 0.00 | 0.00 | 99 | 1015.6 |
| 20260906051731 | 69 | 12 | 0.0 | 0.0 | 0.00 | 0.00 | 0.00 | 99 | 1015.6 |
| 20260906051231 | 69 | 12 | 0.0 | 0.0 | 0.00 | 0.00 | 0.00 | 99 | 1015.7 |
| 20260906050726 | 69 | 13 | 0.0 | 0.0 | 0.00 | 0.00 | 0.00 | 99 | 1015.6 |
| 20260906050221 | 69 | 16 | 0.0 | 2.0 | 0.00 | 0.00 | 0.00 | 99 | 1015.7 |
| 20260906045720 | 69 | 7 | 1.0 | 1.0 | 0.00 | 0.00 | 0.00 | 99 | 1015.4 |
| 20260906045215 | 69 | 8 | 1.0 | 1.0 | 0.00 | 0.00 | 0.00 | 99 | 1015.3 |
| 20260906044711 | 69 | 14 | 0.0 | 0.0 | 0.00 | 0.00 | 0.00 | 99 | 1015.3 |
| 20260906044206 | 69 | 12 | 0.0 | 1.0 | 0.00 | 0.00 | 0.00 | 99 | 1015.5 |
| 20260906043702 | 69 | 15 | 0.0 | 0.0 | 0.00 | 0.00 | 0.00 | 99 | 1015.5 |
| 20260906043158 | 69 | 15 | 0.0 | 0.0 | 0.00 | 0.00 | 0.00 | 99 | 1015.4 |
| 20260906042657 | 69 | 15 | 0.0 | 0.0 | 0.00 | 0.00 | 0.00 | 99 | 1015.5 |
| 20260906042150 | 69 | 15 | 0.0 | 0.0 | 0.00 | 0.00 | 0.00 | 99 | 1015.4 |
| 20260906041646 | 69 | 15 | 0.0 | 0.0 | 0.00 | 0.00 | 0.00 | 99 | 1015.6 |
| 20260906041141 | 69 | 15 | 0.0 | 0.0 | 0.00 | 0.00 | 0.00 | 99 | 1015.7 |
| 20260906040637 | 69 | 15 | 0.0 | 0.0 | 0.00 | 0.00 | 0.00 | 99 | 1015.5 |
| 20260906040132 | 69 | 16 | 0.0 | 0.0 | 0.00 | 0.68 | 0.68 | 99 | 1015.4 |
| 20260906035627 | 69 | 17 | 0.0 | 1.0 | 0.00 | 0.68 | 0.68 | 99 | 1015.8 |
| 20260906035123 | 69 | 16 | 0.0 | 0.0 | 0.00 | 0.68 | 0.68 | 99 | 1015.7 |
| 20260906034617 | 69 | 16 | 0.0 | 0.0 | 0.00 | 0.68 | 0.68 | 99 | 1015.7 |
| 20260906034112 | 69 | 16 | 0.0 | 0.0 | 0.00 | 0.68 | 0.68 | 99 | 1015.7 |
| 20260906033608 | 69 | 16 | 0.0 | 0.0 | 0.00 | 0.68 | 0.68 | 99 | 1015.8 |
| 20260906033103 | 70 | 16 | 0.0 | 0.0 | 0.00 | 0.68 | 0.68 | 99 | 1015.9 |
| 20260906032559 | 70 | 15 | 0.0 | 0.0 | 0.00 | 0.68 | 0.68 | 99 | 1016.2 |
| 20260906032059 | 70 | 14 | 0.0 | 0.0 | 0.00 | 0.68 | 0.68 | 99 | 1015.9 |
| 20260906031554 | 70 | 14 | 0.0 | 0.0 | 0.00 | 0.68 | 0.68 | 99 | 1016.0 |
| 20260906031050 | 70 | 352 | 2.0 | 2.0 | 0.00 | 0.68 | 0.68 | 99 | 1015.9 |
| 20260906030549 | 70 | 14 | 0.0 | 1.0 | 0.00 | 0.68 | 0.68 | 99 | 1016.0 |
| 20260906030049 | 70 | 353 | 4.0 | 7.0 | 0.00 | 0.68 | 0.68 | 99 | 1016.3 |
| 20260906025543 | 70 | 13 | 0.0 | 0.0 | 0.00 | 0.68 | 0.68 | 99 | 1016.1 |
| 20260906025041 | 70 | 14 | 0.0 | 0.0 | 0.00 | 0.68 | 0.68 | 99 | 1016.3 |
| 20260906024537 | 69 | 14 | 0.0 | 0.0 | 0.00 | 0.68 | 0.68 | 99 | 1016.0 |
| 20260906024032 | 70 | 14 | 0.0 | 0.0 | 0.00 | 0.68 | 0.68 | 99 | 1016.1 |
| 20260906023528 | 70 | 14 | 0.0 | 0.0 | 0.00 | 0.68 | 0.68 | 99 | 1016.0 |
| 20260906023028 | 70 | 14 | 0.0 | 0.0 | 0.00 | 0.68 | 0.68 | 99 | 1015.8 |
| 20260906022523 | 70 | 15 | 0.0 | 0.0 | 0.00 | 0.68 | 0.68 | 99 | 1015.9 |
| 20260906022019 | 70 | 13 | 0.0 | 0.0 | 0.00 | 0.68 | 0.68 | 99 | 1016.1 |
| 20260906021514 | 70 | 12 | 0.0 | 0.0 | 0.00 | 0.68 | 0.68 | 99 | 1016.0 |
| 20260906021009 | 70 | 11 | 0.0 | 0.0 | 0.00 | 0.68 | 0.68 | 99 | 1015.9 |
| 20260906020507 | 70 | 10 | 0.0 | 0.0 | 0.00 | 0.68 | 0.68 | 99 | 1016.1 |
| 20260906020007 | 70 | 11 | 0.0 | 0.0 | 0.00 | 0.68 | 0.68 | 99 | 1015.9 |
| 20260906015501 | 70 | 7 | 0.0 | 0.0 | 0.00 | 0.68 | 0.68 | 99 | 1015.8 |
| 20260906015000 | 70 | 359 | 0.0 | 0.0 | 0.00 | 0.68 | 0.68 | 99 | 1015.8 |
| 20260906014455 | 70 | 332 | 0.0 | 0.0 | 0.00 | 0.68 | 0.68 | 99 | 1015.6 |
| 20260906013951 | 71 | 307 | 0.0 | 0.0 | 0.00 | 0.68 | 0.68 | 99 | 1015.7 |
| 20260906013446 | 71 | 311 | 0.0 | 2.0 | 0.00 | 0.68 | 0.68 | 99 | 1015.5 |
| 20260906012942 | 71 | 296 | 0.0 | 1.0 | 0.00 | 0.68 | 0.68 | 99 | 1015.4 |
| 20260906012436 | 71 | 299 | 0.0 | 1.0 | 0.00 | 0.68 | 0.68 | 99 | 1015.5 |
| 20260906011936 | 71 | 272 | 1.0 | 2.0 | 0.00 | 0.68 | 0.68 | 99 | 1015.4 |
| 20260906011431 | 71 | 284 | 1.0 | 1.0 | 0.00 | 0.68 | 0.68 | 99 | 1015.1 |
| 20260906010926 | 71 | 288 | 0.0 | 1.0 | 0.00 | 0.68 | 0.68 | 99 | 1015.2 |
| 20260906010422 | 71 | 290 | 0.0 | 0.0 | 0.00 | 0.68 | 0.68 | 99 | 1015.2 |
| 20260906005918 | 71 | 290 | 0.0 | 0.0 | 0.00 | 0.68 | 0.68 | 99 | 1014.8 |
| 20260906005417 | 71 | 264 | 0.0 | 0.0 | 0.00 | 0.68 | 0.68 | 99 | 1014.9 |
| 20260906004915 | 71 | 263 | 0.0 | 0.0 | 0.00 | 0.68 | 0.68 | 99 | 1014.9 |
| 20260906004410 | 72 | 235 | 0.0 | 0.0 | 0.00 | 0.68 | 0.68 | 99 | 1014.7 |
| 20260906003906 | 72 | 263 | 0.0 | 0.0 | 0.00 | 0.68 | 0.68 | 99 | 1014.5 |
| 20260906003401 | 72 | 263 | 0.0 | 0.0 | 0.00 | 0.68 | 0.68 | 99 | 1014.5 |
| 20260906002857 | 72 | 263 | 0.0 | 0.0 | 0.00 | 0.68 | 0.68 | 98 | 1014.5 |
| 20260906002355 | 72 | 263 | 0.0 | 0.0 | 0.00 | 0.68 | 0.68 | 98 | 1014.5 |
| 20260906001851 | 72 | 263 | 0.0 | 0.0 | 0.00 | 0.68 | 0.68 | 98 | 1014.6 |
| 20260906001347 | 72 | 263 | 0.0 | 0.0 | 0.00 | 0.68 | 0.68 | 98 | 1014.8 |
| 20260906000843 | 73 | 263 | 0.0 | 0.0 | 0.00 | 0.68 | 0.68 | 97 | 1014.9 |
| 20260906000342 | 73 | 263 | 0.0 | 0.0 | 0.00 | 0.68 | 0.68 | 97 | 1015.1 |
| 20260905235842 | 73 | 263 | 0.0 | 0.0 | 0.00 | 0.68 | 0.68 | 96 | 1015.1 |
| 20260905235337 | 73 | 263 | 0.0 | 0.0 | 0.00 | 0.68 | 0.68 | 96 | 1014.9 |
| 20260905234832 | 73 | 263 | 0.0 | 0.0 | 0.00 | 0.68 | 0.68 | 96 | 1014.8 |
| 20260905234327 | 73 | 263 | 0.0 | 0.0 | 0.00 | 0.68 | 0.68 | 96 | 1014.9 |
| 20260905233822 | 74 | 263 | 0.0 | 0.0 | 0.00 | 0.68 | 0.68 | 96 | 1014.8 |
| 20260905233317 | 74 | 263 | 0.0 | 0.0 | 0.00 | 0.68 | 0.68 | 96 | 1014.8 |
| 20260905232816 | 74 | 263 | 0.0 | 0.0 | 0.00 | 0.68 | 0.68 | 95 | 1015.1 |
| 20260905232313 | 74 | 263 | 0.0 | 0.0 | 0.00 | 0.68 | 0.68 | 95 | 1014.7 |
| 20260905231808 | 74 | 263 | 0.0 | 0.0 | 0.00 | 0.68 | 0.68 | 94 | 1014.9 |
| 20260905231303 | 75 | 263 | 0.0 | 0.0 | 0.00 | 0.68 | 0.68 | 94 | 1014.8 |
| 20260905230759 | 75 | 263 | 0.0 | 0.0 | 0.00 | 0.68 | 0.68 | 93 | 1014.8 |
| 20260905230257 | 75 | 263 | 0.0 | 0.0 | 0.00 | 0.68 | 0.68 | 94 | 1014.9 |
| 20260905225757 | 76 | 263 | 0.0 | 1.0 | 0.00 | 0.68 | 0.68 | 93 | 1014.8 |
| 20260905225252 | 76 | 256 | 0.0 | 0.0 | 0.00 | 0.68 | 0.68 | 93 | 1014.8 |
| 20260905224751 | 77 | 253 | 0.0 | 0.0 | 0.00 | 0.68 | 0.68 | 93 | 1014.7 |
| 20260905224247 | 77 | 131 | 1.0 | 1.0 | 0.00 | 0.68 | 0.68 | 92 | 1014.8 |
| 20260905223742 | 78 | 259 | 0.0 | 0.0 | 0.00 | 0.68 | 0.68 | 90 | 1014.8 |
| 20260905223240 | 78 | 258 | 0.0 | 0.0 | 0.00 | 0.68 | 0.68 | 89 | 1014.8 |
| 20260905222735 | 78 | 269 | 0.0 | 0.0 | 0.00 | 0.68 | 0.68 | 88 | 1014.9 |
| 20260905222234 | 79 | 259 | 0.0 | 0.0 | 0.00 | 0.68 | 0.68 | 88 | 1014.9 |
| 20260905221730 | 79 | 260 | 0.0 | 0.0 | 0.00 | 0.68 | 0.68 | 84 | 1015.2 |
| 20260905221227 | 79 | 260 | 0.0 | 0.0 | 0.00 | 0.68 | 0.68 | 85 | 1015.1 |
| 20260905220722 | 80 | 264 | 0.0 | 0.0 | 0.00 | 0.68 | 0.68 | 84 | 1015.1 |
| 20260905220218 | 81 | 125 | 1.0 | 1.0 | 0.00 | 0.68 | 0.68 | 85 | 1014.9 |
| 20260905215717 | 82 | 208 | 0.0 | 1.0 | 0.00 | 0.68 | 0.68 | 79 | 1015.1 |
| 20260905215213 | 83 | 125 | 1.0 | 2.0 | 0.00 | 0.68 | 0.68 | 72 | 1014.7 |
| 20260905214709 | 85 | 122 | 2.0 | 2.0 | 0.00 | 0.68 | 0.68 | 69 | 1014.7 |
| 20260905214204 | 85 | 146 | 0.0 | 1.0 | 0.00 | 0.68 | 0.68 | 71 | 1014.7 |
| 20260905213659 | 85 | 143 | 1.0 | 2.0 | 0.00 | 0.68 | 0.68 | 66 | 1014.6 |
| 20260905213155 | 86 | 120 | 1.0 | 2.0 | 0.00 | 0.68 | 0.68 | 64 | 1014.6 |
| 20260905212650 | 84 | 124 | 1.0 | 3.0 | 0.00 | 0.68 | 0.68 | 67 | 1014.6 |
| 20260905212149 | 85 | 79 | 3.0 | 4.0 | 0.00 | 0.68 | 0.68 | 66 | 1014.4 |
| 20260905211644 | 87 | 272 | 2.0 | 3.0 | 0.00 | 0.68 | 0.68 | 65 | 1014.2 |
| 20260905211140 | 86 | 120 | 1.0 | 2.0 | 0.00 | 0.68 | 0.68 | 68 | 1014.4 |
| 20260905210637 | 85 | 114 | 1.0 | 3.0 | 0.00 | 0.68 | 0.68 | 69 | 1014.4 |
| 20260905210131 | 85 | 92 | 3.0 | 3.0 | 0.00 | 0.68 | 0.68 | 67 | 1014.4 |
| 20260905205630 | 84 | 140 | 1.0 | 2.0 | 0.00 | 0.68 | 0.68 | 66 | 1014.3 |
| 20260905205124 | 83 | 136 | 1.0 | 2.0 | 0.00 | 0.68 | 0.68 | 72 | 1014.4 |
| 20260905204623 | 84 | 99 | 2.0 | 3.0 | 0.00 | 0.68 | 0.68 | 69 | 1014.4 |
| 20260905204119 | 85 | 96 | 3.0 | 3.0 | 0.00 | 0.68 | 0.68 | 68 | 1014.4 |
| 20260905203619 | 83 | 36 | 4.0 | 6.0 | 0.00 | 0.68 | 0.68 | 69 | 1014.4 |
| 20260905203115 | 84 | 274 | 0.0 | 3.0 | 0.00 | 0.68 | 0.68 | 67 | 1014.5 |
| 20260905202610 | 85 | 74 | 6.0 | 8.0 | 0.00 | 0.68 | 0.68 | 68 | 1014.4 |
| 20260905202105 | 85 | 232 | 2.0 | 4.0 | 0.00 | 0.68 | 0.68 | 66 | 1014.4 |
| 20260905201601 | 86 | 164 | 0.0 | 2.0 | 0.00 | 0.68 | 0.68 | 63 | 1014.5 |
| 20260905201101 | 88 | 263 | 2.0 | 2.0 | 0.00 | 0.68 | 0.68 | 61 | 1014.8 |
| 20260905200556 | 86 | 255 | 0.0 | 1.0 | 0.00 | 0.68 | 0.68 | 62 | 1014.8 |
| 20260905200055 | 86 | 268 | 1.0 | 2.0 | 0.00 | 0.68 | 0.68 | 62 | 1015.1 |
| 20260905195549 | 87 | 249 | 2.0 | 2.0 | 0.00 | 0.68 | 0.68 | 62 | 1014.8 |
| 20260905195045 | 84 | 145 | 0.0 | 1.0 | 0.00 | 0.68 | 0.68 | 68 | 1014.9 |
| 20260905194544 | 85 | 110 | 2.0 | 3.0 | 0.00 | 0.68 | 0.68 | 66 | 1014.9 |
| 20260905194044 | 86 | 114 | 2.0 | 4.0 | 0.00 | 0.68 | 0.68 | 67 | 1014.8 |
| 20260905193539 | 84 | 125 | 1.0 | 3.0 | 0.00 | 0.68 | 0.68 | 70 | 1015.1 |
| 20260905193034 | 84 | 88 | 3.0 | 4.0 | 0.00 | 0.68 | 0.68 | 68 | 1014.9 |
| 20260905192529 | 86 | 122 | 0.0 | 1.0 | 0.00 | 0.68 | 0.68 | 62 | 1015.3 |
| 20260905192026 | 87 | 241 | 2.0 | 4.0 | 0.00 | 0.68 | 0.68 | 62 | 1015.3 |
| 20260905191524 | 87 | 251 | 0.0 | 1.0 | 0.00 | 0.68 | 0.68 | 62 | 1015.4 |
| 20260905191023 | 86 | 264 | 0.0 | 1.0 | 0.00 | 0.68 | 0.68 | 62 | 1015.5 |
| 20260905190521 | 84 | 127 | 1.0 | 2.0 | 0.00 | 0.68 | 0.68 | 66 | 1015.6 |
| 20260905190016 | 85 | 259 | 0.0 | 2.0 | 0.00 | 0.68 | 0.68 | 66 | 1015.6 |
| 20260905185516 | 86 | 264 | 1.0 | 1.0 | 0.00 | 0.68 | 0.68 | 67 | 1015.6 |
| 20260905185015 | 84 | 251 | 0.0 | 1.0 | 0.00 | 0.68 | 0.68 | 63 | 1015.8 |
| 20260905184510 | 84 | 141 | 0.0 | 4.0 | 0.00 | 0.68 | 0.68 | 69 | 1016.0 |
| 20260905184008 | 83 | 249 | 0.0 | 3.0 | 0.00 | 0.68 | 0.68 | 67 | 1016.1 |
| 20260905183508 | 83 | 273 | 1.0 | 1.0 | 0.00 | 0.68 | 0.68 | 71 | 1016.3 |
| 20260905183003 | 82 | 264 | 0.0 | 1.0 | 0.00 | 0.68 | 0.68 | 74 | 1016.2 |
| 20260905182502 | 82 | 164 | 0.0 | 1.0 | 0.00 | 0.68 | 0.68 | 69 | 1016.2 |
| 20260905181958 | 82 | 116 | 2.0 | 3.0 | 0.00 | 0.68 | 0.68 | 70 | 1016.4 |
| 20260905181453 | 82 | 120 | 2.0 | 3.0 | 0.00 | 0.68 | 0.68 | 71 | 1016.3 |
| 20260905180952 | 82 | 108 | 2.0 | 3.0 | 0.00 | 0.68 | 0.68 | 76 | 1016.3 |
| 20260905180452 | 82 | 259 | 1.0 | 3.0 | 0.00 | 0.68 | 0.68 | 69 | 1016.2 |
| 20260905175947 | 82 | 252 | 2.0 | 4.0 | 0.00 | 0.68 | 0.68 | 72 | 1016.1 |
| 20260905175446 | 83 | 253 | 1.0 | 3.0 | 0.00 | 0.68 | 0.68 | 67 | 1016.3 |
| 20260905174942 | 82 | 256 | 0.0 | 1.0 | 0.00 | 0.68 | 0.68 | 68 | 1016.2 |
| 20260905174437 | 83 | 274 | 2.0 | 3.0 | 0.00 | 0.68 | 0.68 | 67 | 1016.2 |
| 20260905173933 | 82 | 241 | 0.0 | 1.0 | 0.00 | 0.68 | 0.68 | 71 | 1016.4 |
| 20260905173429 | 83 | 237 | 1.0 | 2.0 | 0.00 | 0.68 | 0.68 | 69 | 1016.2 |
| 20260905172925 | 82 | 260 | 0.0 | 0.0 | 0.00 | 0.68 | 0.68 | 70 | 1016.3 |
| 20260905172422 | 82 | 145 | 1.0 | 2.0 | 0.00 | 0.68 | 0.68 | 73 | 1016.5 |
| 20260905171918 | 81 | 268 | 0.0 | 2.0 | 0.00 | 0.68 | 0.68 | 74 | 1016.4 |
| 20260905171415 | 80 | 256 | 3.0 | 3.0 | 0.00 | 0.68 | 0.68 | 77 | 1016.5 |
| 20260905170911 | 80 | 257 | 0.0 | 0.0 | 0.00 | 0.68 | 0.68 | 76 | 1016.6 |
| 20260905170407 | 81 | 256 | 0.0 | 0.0 | 0.00 | 0.68 | 0.68 | 75 | 1016.7 |
| 20260905165906 | 81 | 178 | 1.0 | 1.0 | 0.00 | 0.68 | 0.68 | 75 | 1017.3 |
| 20260905165401 | 81 | 94 | 4.0 | 4.0 | 0.00 | 0.68 | 0.68 | 74 | 1017.3 |
| 20260905164855 | 80 | 240 | 0.0 | 1.0 | 0.00 | 0.68 | 0.68 | 74 | 1017.4 |
| 20260905164350 | 81 | 136 | 1.0 | 2.0 | 0.00 | 0.68 | 0.68 | 76 | 1017.4 |
| 20260905163846 | 83 | 140 | 1.0 | 3.0 | 0.00 | 0.68 | 0.68 | 74 | 1017.7 |
| 20260905163342 | 81 | 233 | 0.0 | 1.0 | 0.00 | 0.68 | 0.68 | 77 | 1017.9 |
| 20260905162838 | 79 | 260 | 0.0 | 1.0 | 0.00 | 0.68 | 0.68 | 80 | 1017.7 |
| 20260905162337 | 77 | 154 | 1.0 | 3.0 | 0.00 | 0.68 | 0.68 | 85 | 1017.7 |
| 20260905161832 | 76 | 149 | 0.0 | 1.0 | 0.00 | 0.68 | 0.68 | 91 | 1017.6 |
| 20260905161332 | 76 | 125 | 1.0 | 1.0 | 0.00 | 0.68 | 0.68 | 89 | 1017.7 |
| 20260905160830 | 76 | 233 | 0.0 | 2.0 | 0.00 | 0.68 | 0.68 | 87 | 1017.7 |
| 20260905160325 | 75 | 102 | 1.0 | 3.0 | 0.00 | 0.68 | 0.68 | 90 | 1017.7 |
| 20260905155819 | 76 | 250 | 0.0 | 0.0 | 0.00 | 0.68 | 0.68 | 91 | 1017.8 |
| 20260905155318 | 76 | 261 | 1.0 | 2.0 | 0.00 | 0.68 | 0.68 | 89 | 1017.9 |
| 20260905154813 | 75 | 251 | 0.0 | 3.0 | 0.00 | 0.68 | 0.68 | 92 | 1017.8 |
| 20260905154309 | 74 | 255 | 0.0 | 1.0 | 0.00 | 0.68 | 0.68 | 93 | 1017.8 |
| 20260905153804 | 74 | 114 | 1.0 | 2.0 | 0.00 | 0.68 | 0.68 | 95 | 1017.8 |
| 20260905153300 | 73 | 148 | 1.0 | 3.0 | 0.00 | 0.68 | 0.68 | 98 | 1017.6 |
| 20260905152754 | 72 | 256 | 0.0 | 2.0 | 0.00 | 0.68 | 0.68 | 99 | 1017.5 |
| 20260905152253 | 72 | 254 | 0.0 | 1.0 | 0.00 | 0.68 | 0.68 | 99 | 1017.7 |
| 20260905151753 | 71 | 250 | 0.0 | 2.0 | 0.00 | 0.68 | 0.68 | 99 | 1017.6 |
| 20260905151249 | 71 | 148 | 0.0 | 1.0 | 0.00 | 0.68 | 0.68 | 99 | 1017.2 |
| 20260905150744 | 71 | 183 | 1.0 | 1.0 | 0.00 | 0.68 | 0.68 | 99 | 1016.8 |
| 20260905150243 | 71 | 122 | 1.0 | 2.0 | 0.00 | 0.68 | 0.68 | 99 | 1016.7 |
| 20260905145741 | 71 | 242 | 0.0 | 0.0 | 0.00 | 0.68 | 0.68 | 99 | 1016.5 |
| 20260905145236 | 71 | 242 | 0.0 | 1.0 | 0.00 | 0.68 | 0.68 | 99 | 1016.0 |
| 20260905144735 | 70 | 246 | 0.0 | 1.0 | 0.00 | 0.68 | 0.68 | 99 | 1016.0 |
| 20260905144230 | 71 | 232 | 2.0 | 2.0 | 0.00 | 0.68 | 0.68 | 99 | 1016.1 |
| 20260905143729 | 70 | 252 | 0.0 | 2.0 | 0.00 | 0.68 | 0.68 | 99 | 1016.2 |
| 20260905143229 | 70 | 123 | 2.0 | 2.0 | 0.00 | 0.68 | 0.68 | 99 | 1016.7 |
| 20260905142727 | 70 | 125 | 1.0 | 2.0 | 0.00 | 0.68 | 0.68 | 99 | 1016.9 |
| 20260905142222 | 70 | 250 | 0.0 | 0.0 | 0.00 | 0.68 | 0.68 | 99 | 1016.1 |
| 20260905141718 | 70 | 159 | 0.0 | 4.0 | 0.00 | 0.68 | 0.68 | 99 | 1016.5 |
| 20260905141214 | 70 | 146 | 2.0 | 2.0 | 0.00 | 0.68 | 0.68 | 99 | 1016.7 |
| 20260905140709 | 70 | 116 | 3.0 | 6.0 | 0.00 | 0.68 | 0.68 | 99 | 1017.1 |
| 20260905140209 | 70 | 141 | 4.0 | 6.0 | 0.00 | 0.68 | 0.68 | 99 | 1017.1 |
| 20260905135703 | 70 | 148 | 1.0 | 1.0 | 0.00 | 0.68 | 0.68 | 99 | 1017.3 |
| 20260905135200 | 70 | 159 | 1.0 | 3.0 | 0.00 | 0.68 | 0.68 | 99 | 1017.3 |
| 20260905134653 | 70 | 211 | 0.0 | 1.0 | 0.00 | 0.68 | 0.68 | 99 | 1017.6 |
| 20260905134152 | 70 | 238 | 0.0 | 0.0 | 0.00 | 0.68 | 0.68 | 99 | 1017.5 |
| 20260905133648 | 70 | 253 | 0.0 | 0.0 | 0.00 | 0.68 | 0.68 | 99 | 1017.6 |
| 20260905133147 | 70 | 236 | 0.0 | 0.0 | 0.00 | 0.68 | 0.68 | 99 | 1017.9 |
| 20260905132647 | 70 | 225 | 0.0 | 0.0 | 0.00 | 0.68 | 0.68 | 99 | 1017.9 |
| 20260905132142 | 69 | 112 | 1.0 | 1.0 | 0.00 | 0.68 | 0.68 | 99 | 1017.7 |
| 20260905131637 | 69 | 258 | 0.0 | 2.0 | 0.00 | 0.68 | 0.68 | 99 | 1017.6 |
| 20260905131132 | 69 | 265 | 1.0 | 1.0 | 0.00 | 0.68 | 0.68 | 99 | 1017.6 |
| 20260905130626 | 69 | 258 | 1.0 | 1.0 | 0.00 | 0.68 | 0.68 | 99 | 1017.6 |
| 20260905130120 | 69 | 258 | 0.0 | 0.0 | 0.00 | 0.68 | 0.68 | 99 | 1017.9 |
| 20260905125615 | 69 | 250 | 0.0 | 1.0 | 0.00 | 0.68 | 0.68 | 99 | 1018.0 |
| 20260905125111 | 69 | 126 | 0.0 | 0.0 | 0.05 | 0.68 | 0.68 | 99 | 1017.9 |
| 20260905124607 | 69 | 255 | 1.0 | 2.0 | 0.12 | 0.68 | 0.68 | 99 | 1017.6 |
| 20260905124102 | 69 | 263 | 1.0 | 1.0 | 0.19 | 0.67 | 0.67 | 99 | 1017.8 |
| 20260905123557 | 69 | 260 | 1.0 | 1.0 | 0.71 | 0.66 | 0.66 | 99 | 1018.2 |
| 20260905123055 | 69 | 291 | 1.0 | 3.0 | 1.25 | 0.64 | 0.64 | 99 | 1018.5 |
| 20260905122554 | 69 | 85 | 2.0 | 2.0 | 1.68 | 0.53 | 0.53 | 99 | 1018.2 |
| 20260905122049 | 70 | 278 | 1.0 | 2.0 | 1.21 | 0.41 | 0.41 | 99 | 1018.3 |
| 20260905121543 | 70 | 282 | 3.0 | 3.0 | 0.24 | 0.24 | 0.24 | 99 | 1018.5 |
| 20260905121038 | 70 | 159 | 0.0 | 1.0 | 0.42 | 0.21 | 0.21 | 99 | 1017.8 |